DT_LEITURA;HR_LEITURA;MED-PressaoAtm[hPa];VAL-TempExt[oC];VAL-UmidExt[%UR];VAL-TempInt[oC];VAL-UmidInt[%UR];Dir-Vento[grau];Vel-Vento[m/s];Precipitação[mm/h]
15/08/2026;00:00:00;1013,7;-36,4;0;27,5;86;145;0,9;0,0
15/08/2026;00:05:00;1013,6;-36,4;0;27,5;86;178;0,8;0,0
15/08/2026;00:10:00;1013,6;-36,4;0;27,5;86;145;1,1;0,0
15/08/2026;00:15:00;1013,5;-36,3;0;27,5;86;141;1,0;0,0
15/08/2026;00:20:00;1013,5;-36,4;0;27,5;85;145;1,1;0,0
15/08/2026;00:25:00;1013,4;-36,4;0;27,6;85;157;1,1;0,0
15/08/2026;00:30:00;1013,4;-36,4;0;27,6;84;138;1,3;0,0
15/08/2026;00:35:00;1013,3;-36,4;0;27,6;84;148;1,1;0,0
15/08/2026;00:40:00;1013,2;-36,4;0;27,7;83;130;1,1;0,0
15/08/2026;00:45:00;1013,2;-36,4;0;27,7;83;138;1,2;0,0
15/08/2026;00:50:00;1013,2;-36,4;0;27,8;83;128;1,3;0,0
15/08/2026;00:55:00;1013,2;-36,4;0;27,8;82;143;1,2;0,0
15/08/2026;01:00:00;1013,1;-36,4;0;27,8;82;138;1,0;0,0
15/08/2026;01:05:00;1013,0;-36,4;0;27,8;82;136;1,6;0,0
15/08/2026;01:10:00;1013,0;-36,4;0;27,9;81;133;1,1;0,0
15/08/2026;01:15:00;1013,0;-36,4;0;27,9;81;126;1,0;0,0
15/08/2026;01:20:00;1012,9;-36,4;0;27,9;81;133;1,1;0,0
15/08/2026;01:25:00;1012,8;-36,4;0;27,9;81;138;1,2;0,0
15/08/2026;01:30:00;1012,7;-36,4;0;27,9;81;155;1,2;0,0
15/08/2026;01:35:00;1012,7;-36,4;0;27,9;81;137;1,1;0,0
15/08/2026;01:40:00;1012,7;-36,4;0;27,9;80;156;0,9;0,0
15/08/2026;01:45:00;1012,6;-36,4;0;27,9;80;159;0,9;0,0
15/08/2026;01:50:00;1012,6;-36,4;0;27,9;80;142;1,2;0,0
15/08/2026;01:55:00;1012,5;-36,4;0;27,9;80;148;1,0;0,0
15/08/2026;02:00:00;1012,5;-36,4;0;27,9;80;145;1,2;0,0
15/08/2026;02:05:00;1012,5;-36,4;0;27,9;80;138;1,3;0,0
15/08/2026;02:10:00;1012,4;-36,4;0;27,9;80;126;1,4;0,0
15/08/2026;02:15:00;1012,3;-36,4;0;27,9;80;137;1,1;0,0
15/08/2026;02:20:00;1012,3;-36,4;0;27,9;80;146;1,1;0,0
15/08/2026;02:25:00;1012,3;-36,4;0;27,9;81;130;1,0;0,0
15/08/2026;02:30:00;1012,2;-36,4;0;27,9;81;123;1,2;0,0
15/08/2026;02:35:00;1012,2;-36,4;0;27,9;81;126;1,1;0,0
15/08/2026;02:40:00;1012,2;-36,4;0;27,9;81;129;0,8;0,0
15/08/2026;02:45:00;1012,1;-36,4;0;27,9;82;121;1,1;0,0
15/08/2026;02:50:00;1012,1;-36,4;0;27,9;82;149;0,7;0,0
15/08/2026;02:55:00;1012,0;-36,5;0;27,9;82;142;1,1;0,0
15/08/2026;03:00:00;1011,9;-36,5;0;27,9;81;145;1,2;0,0
15/08/2026;03:05:00;1011,9;-36,5;0;27,8;81;160;0,9;0,0
15/08/2026;03:10:00;1011,9;-36,5;0;27,8;81;151;1,0;0,0
15/08/2026;03:15:00;1011,9;-36,5;0;27,7;81;166;0,9;0,0
15/08/2026;03:20:00;1011,9;-36,5;0;27,7;81;158;1,0;0,0
15/08/2026;03:25:00;1011,8;-36,5;0;27,7;81;154;0,9;0,0
15/08/2026;03:30:00;1011,8;-36,5;0;27,6;81;155;1,0;0,0
15/08/2026;03:35:00;1011,8;-36,5;0;27,6;81;161;1,0;0,0
15/08/2026;03:40:00;1011,8;-36,5;0;27,6;81;157;1,1;0,0
15/08/2026;03:45:00;1011,8;-36,5;0;27,6;81;147;1,1;0,0
15/08/2026;03:50:00;1011,9;-36,5;0;27,6;81;155;0,9;0,0
15/08/2026;03:55:00;1011,8;-36,5;0;27,6;81;172;0,7;0,0
15/08/2026;04:00:00;1011,9;-36,5;0;27,6;81;187;0,6;0,0
15/08/2026;04:05:00;1011,9;-36,5;0;27,6;81;317;0,4;0,0
15/08/2026;04:10:00;1011,9;-36,5;0;27,5;81;223;0,4;0,0
15/08/2026;04:15:00;1011,9;-36,5;0;27,5;81;15;0,4;0,0
15/08/2026;04:20:00;1012,0;-36,5;0;27,5;81;351;0,4;0,0
15/08/2026;04:25:00;1011,9;-36,5;0;27,5;81;1;0,3;0,0
15/08/2026;04:30:00;1011,9;-36,5;0;27,5;81;329;0,3;0,0
15/08/2026;04:35:00;1012,0;-36,5;0;27,4;81;283;0,3;0,0
15/08/2026;04:40:00;1012,0;-36,5;0;27,4;81;358;0,4;0,0
15/08/2026;04:45:00;1012,0;-36,5;0;27,4;81;301;0,4;0,0
15/08/2026;04:50:00;1011,9;-36,5;0;27,4;81;315;0,4;0,0
15/08/2026;04:55:00;1012,0;-36,5;0;27,4;81;213;0,3;0,0
15/08/2026;05:00:00;1012,0;-36,5;0;27,4;81;3;0,5;0,0
15/08/2026;05:05:00;1012,1;-36,5;0;27,4;81;53;0,3;0,0
15/08/2026;05:10:00;1012,1;-36,5;0;27,4;81;353;0,4;0,0
15/08/2026;05:15:00;1012,2;-36,5;0;27,4;81;271;0,3;0,0
15/08/2026;05:20:00;1012,3;-36,5;0;27,4;81;290;0,3;0,0
15/08/2026;05:25:00;1012,3;-36,5;0;27,4;81;355;0,3;0,0
15/08/2026;05:30:00;1012,3;-36,5;0;27,4;81;355;0,4;0,0
15/08/2026;05:35:00;1012,3;-36,5;0;27,4;81;65;0,3;0,0
15/08/2026;05:40:00;1012,3;-36,5;0;27,4;81;360;0,4;0,0
15/08/2026;05:45:00;1012,3;-36,5;0;27,3;81;358;0,4;0,0
15/08/2026;05:50:00;1012,4;-36,5;0;27,3;81;9;0,5;0,0
15/08/2026;05:55:00;1012,4;-36,5;0;27,2;81;353;0,6;0,0
15/08/2026;06:00:00;1012,4;-36,6;0;27,2;81;347;0,6;0,0
15/08/2026;06:05:00;1012,3;-36,6;0;27,1;82;8;0,4;0,0
15/08/2026;06:10:00;1012,4;-36,6;0;27,1;82;332;0,4;0,0
15/08/2026;06:15:00;1012,4;-36,6;0;27,0;82;8;0,4;0,0
15/08/2026;06:20:00;1012,4;-36,6;0;27,0;82;316;0,3;0,0
15/08/2026;06:25:00;1012,4;-36,6;0;27,0;82;341;0,5;0,0
15/08/2026;06:30:00;1012,5;-36,6;0;26,9;82;252;0,5;0,0
15/08/2026;06:35:00;1012,5;-36,6;0;26,9;83;307;0,4;0,0
15/08/2026;06:40:00;1012,5;-36,6;0;26,9;83;168;0,4;0,0
15/08/2026;06:45:00;1012,5;-36,6;0;26,8;83;276;0,4;0,0
15/08/2026;06:50:00;1012,6;-36,6;0;26,8;83;184;0,4;0,0
15/08/2026;06:55:00;1012,6;-36,6;0;26,8;83;41;0,4;0,0
15/08/2026;07:00:00;1012,7;-36,6;0;26,8;84;299;0,5;0,0
15/08/2026;07:05:00;1012,7;-36,6;0;26,7;83;336;0,4;0,0
15/08/2026;07:10:00;1012,8;-36,6;0;26,7;83;324;0,4;0,0
15/08/2026;07:15:00;1012,9;-36,6;0;26,7;83;342;0,4;0,0
15/08/2026;07:20:00;1012,9;-36,6;0;26,7;83;342;0,5;0,0
15/08/2026;07:25:00;1012,9;-36,6;0;26,7;83;355;0,4;0,0
15/08/2026;07:30:00;1013,0;-36,6;0;26,7;83;46;0,5;0,0
15/08/2026;07:35:00;1013,0;-36,6;0;26,8;83;15;0,4;0,0
15/08/2026;07:40:00;1013,1;-36,6;0;26,8;83;345;0,4;0,0
15/08/2026;07:45:00;1013,1;-36,6;0;26,9;83;26;0,6;0,0
15/08/2026;07:50:00;1013,2;-36,5;0;27,0;83;9;0,7;0,0
15/08/2026;07:55:00;1013,2;-36,5;0;27,1;83;61;0,5;0,0
15/08/2026;08:00:00;1013,3;-36,5;0;27,2;82;3;0,6;0,0
15/08/2026;08:05:00;1013,3;-36,5;0;27,2;82;355;0,6;0,0
15/08/2026;08:10:00;1013,3;-36,5;0;27,3;82;336;0,6;0,0
15/08/2026;08:15:00;1013,4;-36,5;0;27,5;81;347;0,5;0,0
15/08/2026;08:20:00;1013,4;-36,5;0;27,6;81;325;0,4;0,0
15/08/2026;08:25:00;1013,4;-36,5;0;27,8;81;271;0,6;0,0
15/08/2026;08:30:00;1013,5;-36,5;0;28,0;81;262;0,5;0,0
15/08/2026;08:35:00;1013,5;-36,5;0;28,1;80;121;0,6;0,0
15/08/2026;08:40:00;1013,5;-36,5;0;28,3;79;301;0,4;0,0
15/08/2026;08:45:00;1013,5;-36,4;0;28,4;78;328;0,6;0,0
15/08/2026;08:50:00;1013,5;-36,4;0;28,6;78;313;0,6;0,0
15/08/2026;08:55:00;1013,5;-36,4;0;28,7;78;275;0,4;0,0
15/08/2026;09:00:00;1013,5;-36,4;0;28,9;77;308;0,5;0,0
15/08/2026;09:05:00;1013,6;-36,3;0;29,2;77;140;1,1;0,0
15/08/2026;09:10:00;1013,5;-36,2;0;29,4;76;172;0,7;0,0
15/08/2026;09:15:00;1013,5;-36,0;0;29,6;76;150;1,2;0,0
15/08/2026;09:20:00;1013,5;-35,8;0;29,7;75;148;0,8;0,0
15/08/2026;09:25:00;1013,5;-35,6;0;29,9;75;156;0,8;0,0
15/08/2026;09:30:00;1013,5;-34,9;0;30,2;74;140;0,7;0,0
15/08/2026;09:35:00;1013,5;-33,5;0;30,7;72;194;0,8;0,0
15/08/2026;09:40:00;1013,6;-31,8;0;31,0;70;146;1,4;0,0
15/08/2026;09:45:00;1013,6;-29,7;0;31,2;69;155;1,4;0,0
15/08/2026;09:50:00;1013,6;-25,8;0;31,7;66;153;1,5;0,0
15/08/2026;09:55:00;1013,6;-22,8;0;32,0;65;151;1,5;0,0
15/08/2026;10:00:00;1013,6;-20,2;0;32,1;65;151;1,1;0,0
15/08/2026;10:05:00;1013,6;-20,4;0;32,4;63;135;1,8;0,0
15/08/2026;10:10:00;1013,6;-20,2;0;32,3;63;152;1,3;0,0
15/08/2026;10:15:00;1013,6;-20,3;0;32,1;63;143;1,6;0,0
15/08/2026;10:20:00;1013,6;-20,4;0;32,0;64;140;1,7;0,0
15/08/2026;10:25:00;1013,6;-20,3;0;32,1;64;125;1,8;0,0
15/08/2026;10:30:00;1013,6;-20,2;0;32,1;64;125;2,1;0,0
15/08/2026;10:35:00;1013,6;-20,0;0;32,5;62;129;2,1;0,0
15/08/2026;10:40:00;1013,6;-20,0;0;32,7;61;132;1,9;0,0
15/08/2026;10:45:00;1013,6;-19,3;0;33,0;61;124;2,3;0,0
15/08/2026;10:50:00;1013,5;-19,9;0;33,4;60;134;1,9;0,0
15/08/2026;10:55:00;1013,5;-20,0;0;33,4;59;131;2,3;0,0
15/08/2026;11:00:00;1013,4;-20,0;0;33,5;58;144;1,8;0,0
15/08/2026;11:05:00;1013,4;-20,0;0;33,6;58;159;1,0;0,0
15/08/2026;11:10:00;1013,3;-20,1;0;33,7;57;153;1,9;0,0
15/08/2026;11:15:00;1013,3;-20,1;0;34,0;56;140;1,4;0,0
15/08/2026;11:20:00;1013,2;-20,2;0;34,1;57;183;0,9;0,0
15/08/2026;11:25:00;1013,2;-20,3;0;34,2;55;157;1,4;0,0
15/08/2026;11:30:00;1013,1;-20,4;0;34,4;55;128;1,8;0,0
15/08/2026;11:35:00;1013,1;-20,5;0;34,7;54;130;2,4;0,0
15/08/2026;11:40:00;1013,1;-20,6;0;34,7;54;145;2,0;0,0
15/08/2026;11:45:00;1013,0;-20,8;0;34,6;54;156;1,6;0,0
15/08/2026;11:50:00;1013,0;-21,0;0;34,4;55;154;1,7;0,0
15/08/2026;11:55:00;1013,0;-21,0;0;34,2;56;139;1,4;0,0
15/08/2026;12:00:00;1013,0;-21,1;0;34,2;56;123;2,1;0,0
15/08/2026;12:05:00;1012,9;-21,3;0;34,5;55;148;1,4;0,0
15/08/2026;12:10:00;1012,8;-21,4;0;34,9;54;149;1,8;0,0
15/08/2026;12:15:00;1012,7;-21,5;0;35,1;53;150;1,4;0,0
15/08/2026;12:20:00;1012,7;-21,7;0;35,3;52;128;2,0;0,0
15/08/2026;12:25:00;1012,6;-21,8;0;35,4;51;160;1,8;0,0
15/08/2026;12:30:00;1012,5;-21,5;0;35,5;51;135;1,9;0,0
15/08/2026;12:35:00;1012,5;-21,3;0;35,7;51;147;1,6;0,0
15/08/2026;12:40:00;1012,4;-21,4;0;35,9;52;147;1,3;0,0
15/08/2026;12:45:00;1012,3;-21,5;0;36,1;50;162;1,8;0,0
15/08/2026;12:50:00;1012,2;-21,4;0;36,2;50;186;0,8;0,0
15/08/2026;12:55:00;1012,2;-21,5;0;36,5;50;142;1,8;0,0
15/08/2026;13:00:00;1012,1;-21,6;0;36,7;49;163;1,4;0,0
15/08/2026;13:05:00;1012,0;-21,7;0;36,9;49;154;1,6;0,0
15/08/2026;13:10:00;1011,9;-21,7;0;37,0;48;157;1,0;0,0
15/08/2026;13:15:00;1011,8;-21,6;0;37,3;48;158;1,3;0,0
15/08/2026;13:20:00;1011,7;-21,6;0;37,4;47;160;1,6;0,0
15/08/2026;13:25:00;1011,6;-21,8;0;37,6;48;145;1,5;0,0
15/08/2026;13:30:00;1011,5;-21,8;0;37,7;47;154;1,9;0,0
15/08/2026;13:35:00;1011,5;-21,8;0;37,7;47;133;1,8;0,0
15/08/2026;13:40:00;1011,5;-21,8;0;37,5;47;150;1,0;0,0
15/08/2026;13:45:00;1011,4;-21,1;0;37,6;47;185;1,2;0,0
15/08/2026;13:50:00;1011,4;-21,8;0;37,8;48;144;1,7;0,0
15/08/2026;13:55:00;1011,3;-21,9;0;38,0;46;161;1,4;0,0
15/08/2026;14:00:00;1011,3;-21,7;0;38,1;46;152;1,6;0,0
15/08/2026;14:05:00;1011,2;-21,6;0;38,2;45;164;1,5;0,0
15/08/2026;14:10:00;1011,2;-21,7;0;38,3;44;153;1,5;0,0
15/08/2026;14:15:00;1011,2;-21,7;0;38,4;45;167;1,4;0,0
15/08/2026;14:20:00;1011,1;-21,6;0;38,5;44;189;0,8;0,0
15/08/2026;14:25:00;1011,0;-21,7;0;38,7;44;200;1,1;0,0
15/08/2026;14:30:00;1011,0;-20,8;0;39,0;44;165;1,3;0,0
15/08/2026;14:35:00;1010,9;-21,6;0;39,3;42;166;1,5;0,0
15/08/2026;14:40:00;1010,8;-21,6;0;39,3;41;139;1,7;0,0
15/08/2026;14:45:00;1010,7;-21,7;0;39,2;42;161;1,5;0,0
15/08/2026;14:50:00;1010,7;-21,6;0;39,3;41;176;1,1;0,0
15/08/2026;14:55:00;1010,6;-21,5;0;39,4;43;187;1,0;0,0
15/08/2026;15:00:00;1010,6;-21,5;0;39,7;42;158;1,4;0,0
15/08/2026;15:05:00;1010,5;-21,5;0;39,8;40;139;1,5;0,0
15/08/2026;15:10:00;1010,5;-21,5;0;39,8;39;133;1,9;0,0
15/08/2026;15:15:00;1010,4;-20,7;0;39,7;39;153;1,4;0,0
15/08/2026;15:20:00;1010,4;-21,4;0;39,7;39;126;1,9;0,0
15/08/2026;15:25:00;1010,3;-21,4;0;39,6;39;128;2,0;0,0
15/08/2026;15:30:00;1010,3;-21,4;0;39,6;39;142;2,0;0,0
15/08/2026;15:35:00;1010,2;-21,5;0;39,5;39;153;1,5;0,0
15/08/2026;15:40:00;1010,2;-21,5;0;39,6;39;147;1,7;0,0
15/08/2026;15:45:00;1010,2;-21,4;0;39,6;40;134;1,4;0,0
15/08/2026;15:50:00;1010,2;-21,3;0;39,6;39;130;1,9;0,0
15/08/2026;15:55:00;1010,1;-21,2;0;39,5;40;143;1,7;0,0
15/08/2026;16:00:00;1010,0;-21,3;0;39,5;40;144;1,6;0,0
15/08/2026;16:05:00;1010,0;-21,3;0;39,5;40;138;1,9;0,0
15/08/2026;16:10:00;1009,9;-21,3;0;39,4;40;134;1,7;0,0
15/08/2026;16:15:00;1009,9;-20,6;0;39,3;40;132;1,7;0,0
15/08/2026;16:20:00;1009,9;-21,3;0;39,1;40;129;2,2;0,0
15/08/2026;16:25:00;1009,9;-21,3;0;38,6;42;133;1,7;0,0
15/08/2026;16:30:00;1009,8;-21,5;0;37,9;42;159;1,7;0,0
15/08/2026;16:35:00;1009,8;-21,5;0;37,0;44;156;1,7;0,0
15/08/2026;16:40:00;1009,8;-21,6;0;36,4;46;150;1,3;0,0
15/08/2026;16:45:00;1009,8;-21,7;0;36,0;47;134;1,9;0,0
15/08/2026;16:50:00;1009,8;-21,7;0;35,6;48;139;1,4;0,0
15/08/2026;16:55:00;1009,8;-21,8;0;35,3;49;126;1,5;0,0
15/08/2026;17:00:00;1009,8;-21,8;0;35,1;49;136;1,9;0,0
15/08/2026;17:05:00;1009,9;-21,8;0;34,9;50;137;1,5;0,0
15/08/2026;17:10:00;1009,9;-21,7;0;34,7;51;139;1,4;0,0
15/08/2026;17:15:00;1009,9;-21,9;0;34,5;51;149;1,8;0,0
15/08/2026;17:20:00;1010,0;-21,9;0;34,3;52;145;1,9;0,0
15/08/2026;17:25:00;1010,0;-22,0;0;34,0;52;133;1,9;0,0
15/08/2026;17:30:00;1010,0;-22,0;0;33,8;53;127;1,9;0,0
15/08/2026;17:35:00;1010,0;-22,0;0;33,7;53;131;1,8;0,0
15/08/2026;17:40:00;1010,0;-22,1;0;33,6;54;137;1,9;0,0
15/08/2026;17:45:00;1010,0;-22,0;0;33,4;55;131;1,6;0,0
15/08/2026;17:50:00;1010,0;-22,0;0;33,3;56;153;1,3;0,0
15/08/2026;17:55:00;1010,0;-22,1;0;33,2;57;156;1,2;0,0
15/08/2026;18:00:00;1010,0;-22,1;0;33,0;57;133;1,8;0,0
15/08/2026;18:05:00;1010,0;-22,2;0;32,9;58;146;1,4;0,0
15/08/2026;18:10:00;1010,0;-22,3;0;32,7;58;138;1,4;0,0
15/08/2026;18:15:00;1010,1;-21,7;0;32,6;59;135;1,2;0,0
15/08/2026;18:20:00;1010,1;-22,4;0;32,5;59;135;1,3;0,0
15/08/2026;18:25:00;1010,1;-22,5;0;32,4;59;145;1,3;0,0
15/08/2026;18:30:00;1010,1;-22,7;0;32,2;59;137;1,3;0,0
15/08/2026;18:35:00;1010,1;-22,7;0;32,1;60;139;1,1;0,0
15/08/2026;18:40:00;1010,1;-22,8;0;32,0;60;136;1,4;0,0
15/08/2026;18:45:00;1010,1;-22,9;0;31,9;61;134;1,2;0,0
15/08/2026;18:50:00;1010,1;-23,2;0;31,8;62;138;1,2;0,0
15/08/2026;18:55:00;1010,2;-23,4;0;31,7;62;150;1,1;0,0
15/08/2026;19:00:00;1010,2;-22,9;0;31,6;63;153;1,0;0,0
15/08/2026;19:05:00;1010,2;-23,9;0;31,5;63;158;1,0;0,0
15/08/2026;19:10:00;1010,3;-24,2;0;31,4;64;153;1,1;0,0
15/08/2026;19:15:00;1010,3;-24,4;0;31,3;64;149;1,2;0,0
15/08/2026;19:20:00;1010,4;-24,8;0;31,2;65;160;1,0;0,0
15/08/2026;19:25:00;1010,4;-25,1;0;31,1;65;165;1,1;0,0
15/08/2026;19:30:00;1010,5;-25,4;0;31,0;65;167;0,8;0,0
15/08/2026;19:35:00;1010,5;-25,5;0;30,9;66;166;0,6;0,0
15/08/2026;19:40:00;1010,6;-25,7;0;30,9;66;162;0,8;0,0
15/08/2026;19:45:00;1010,6;-25,4;0;30,9;66;191;0,6;0,0
15/08/2026;19:50:00;1010,7;-26,1;0;30,8;66;178;0,7;0,0
15/08/2026;19:55:00;1010,7;-26,3;0;30,7;65;172;0,6;0,0
15/08/2026;20:00:00;1010,7;-26,6;0;30,7;65;167;0,7;0,0
15/08/2026;20:05:00;1010,8;-26,7;0;30,6;65;183;0,7;0,0
15/08/2026;20:10:00;1010,8;-27,0;0;30,6;65;181;0,5;0,0
15/08/2026;20:15:00;1010,9;-27,3;0;30,5;65;164;0,8;0,0
15/08/2026;20:20:00;1010,9;-27,6;0;30,4;65;162;0,7;0,0
15/08/2026;20:25:00;1011,0;-28,0;0;30,4;65;154;0,7;0,0
15/08/2026;20:30:00;1011,0;-27,9;0;30,3;66;157;0,8;0,0
15/08/2026;20:35:00;1011,0;-28,7;0;30,2;66;163;0,6;0,0
15/08/2026;20:40:00;1011,1;-29,1;0;30,1;67;155;0,8;0,0
15/08/2026;20:45:00;1011,1;-29,5;0;30,0;67;168;1,1;0,0
15/08/2026;20:50:00;1011,1;-29,8;0;30,0;68;167;0,8;0,0
15/08/2026;20:55:00;1011,2;-30,2;0;29,9;69;164;1,1;0,0
15/08/2026;21:00:00;1011,3;-30,6;0;29,8;69;163;1,0;0,0
15/08/2026;21:05:00;1011,3;-30,8;0;29,8;70;163;0,8;0,0
15/08/2026;21:10:00;1011,4;-31,1;0;29,7;70;164;0,8;0,0
15/08/2026;21:15:00;1011,5;-31,2;0;29,7;70;158;1,1;0,0
15/08/2026;21:20:00;1011,6;-31,5;0;29,6;70;139;1,5;0,0
15/08/2026;21:25:00;1011,7;-31,7;0;29,5;69;154;1,0;0,0
15/08/2026;21:30:00;1011,8;-31,9;0;29,5;69;144;1,1;0,0
15/08/2026;21:35:00;1011,8;-32,1;0;29,5;69;141;1,3;0,0
15/08/2026;21:40:00;1011,9;-32,3;0;29,4;69;133;1,3;0,0
15/08/2026;21:45:00;1012,0;-32,5;0;29,4;69;138;1,3;0,0
15/08/2026;21:50:00;1012,0;-32,6;0;29,3;69;141;1,3;0,0
15/08/2026;21:55:00;1012,0;-32,8;0;29,3;69;142;1,0;0,0
15/08/2026;22:00:00;1012,1;-32,9;0;29,2;69;131;1,3;0,0
15/08/2026;22:05:00;1012,2;-33,0;0;29,2;69;133;1,2;0,0
15/08/2026;22:10:00;1012,2;-33,1;0;29,2;69;129;1,3;0,0
15/08/2026;22:15:00;1012,2;-33,2;0;29,1;69;158;1,3;0,0
15/08/2026;22:20:00;1012,2;-33,3;0;29,1;70;142;1,2;0,0
15/08/2026;22:25:00;1012,2;-33,4;0;29,0;69;148;1,2;0,0
15/08/2026;22:30:00;1012,2;-33,5;0;29,0;69;163;1,2;0,0
15/08/2026;22:35:00;1012,2;-33,6;0;29,0;69;148;1,6;0,0
15/08/2026;22:40:00;1012,2;-33,6;0;28,9;69;152;1,3;0,0
15/08/2026;22:45:00;1012,2;-33,7;0;28,9;69;152;1,4;0,0
15/08/2026;22:50:00;1012,1;-33,8;0;28,9;69;138;1,5;0,0
15/08/2026;22:55:00;1012,1;-33,9;0;28,9;69;140;1,2;0,0
